2023/04/05 23:42:36+0000,-32.30,-47.43,-38.11,-47.37,-48.85,-53.43
2023/04/05 23:43:28+0000,-32.80,-47.12,-38.04,-47.73,-49.57,-53.09
2023/04/05 23:44:20+0000,-33.30,-47.28,-37.93,-49.25,-49.48,-53.40
2023/04/05 23:45:12+0000,-32.43,-46.99,-38.06,-47.69,-50.64,-52.88
2023/04/05 23:46:04+0000,-32.53,-46.79,-38.14,-48.08,-49.01,-52.94
2023/04/05 23:46:56+0000,-33.55,-47.15,-37.16,-47.37,-51.62,-53.95
2023/04/05 23:47:48+0000,-33.43,-47.34,-38.66,-46.65,-49.38,-54.63
2023/04/05 23:48:40+0000,-32.57,-46.54,-38.14,-47.70,-50.63,-54.01
2023/04/05 23:49:32+0000,-32.63,-47.32,-37.49,-45.75,-49.15,-54.61
2023/04/05 23:50:24+0000,-32.77,-47.89,-38.06,-46.93,-48.30,-54.44
2023/04/05 23:51:23+0000,-32.86,-47.77,-38.48,-43.50,-48.95,-54.36
2023/04/05 23:52:15+0000,-33.44,-47.25,-37.40,-42.67,-48.46,-53.43
2023/04/05 23:53:07+0000,-33.29,-47.01,-38.01,-44.79,-48.77,-53.57
2023/04/05 23:53:59+0000,-32.55,-47.52,-37.78,-42.59,-47.93,-54.19
2023/04/05 23:54:51+0000,-32.88,-46.50,-37.25,-42.70,-48.98,-53.50
2023/04/05 23:55:43+0000,-33.00,-46.40,-37.84,-43.06,-48.08,-53.25
2023/04/05 23:56:35+0000,-33.55,-47.18,-37.68,-42.83,-49.37,-53.64
2023/04/05 23:57:27+0000,-33.01,-46.66,-38.19,-41.27,-50.16,-53.35
2023/04/05 23:58:19+0000,-33.41,-46.64,-37.54,-44.01,-49.99,-53.25
2023/04/05 23:59:11+0000,-33.19,-47.07,-37.66,-44.32,-50.25,-54.35
2023/04/06 00:00:03+0000,-33.41,-46.95,-37.23,-44.73,-49.12,-53.29
2023/04/06 00:01:08+0000,-33.03,-46.62,-37.69,-44.69,-50.13,-53.51
2023/04/06 00:02:00+0000,-33.53,-46.96,-37.61,-44.09,-50.80,-54.14
2023/04/06 00:02:52+0000,-32.88,-47.43,-38.21,-45.06,-48.71,-54.25
2023/04/06 00:03:44+0000,-33.08,-45.73,-38.29,-44.67,-46.69,-54.41
2023/04/06 00:04:36+0000,-32.83,-46.90,-38.69,-44.73,-50.42,-54.39
2023/04/06 00:05:28+0000,-33.65,-46.32,-38.52,-43.72,-49.27,-54.00
2023/04/06 00:06:20+0000,-33.23,-46.73,-37.80,-43.41,-49.51,-54.41
2023/04/06 00:07:12+0000,-33.62,-46.66,-38.27,-43.17,-49.05,-53.06
2023/04/06 00:08:04+0000,-33.34,-46.72,-37.61,-42.97,-50.62,-54.04
2023/04/06 00:08:56+0000,-33.12,-46.78,-38.09,-43.11,-50.16,-54.71
2023/04/06 00:09:48+0000,-32.83,-47.00,-38.46,-42.97,-50.75,-54.24
2023/04/06 00:10:40+0000,-33.46,-46.07,-38.32,-43.24,-49.69,-53.79
2023/04/06 00:11:39+0000,-33.34,-46.54,-38.28,-43.51,-49.18,-54.28
2023/04/06 00:12:31+0000,-33.23,-46.86,-37.54,-42.71,-49.45,-54.49
2023/04/06 00:13:23+0000,-33.40,-45.61,-38.42,-43.62,-48.36,-53.54
2023/04/06 00:14:15+0000,-34.03,-44.97,-37.34,-46.02,-50.08,-54.56
2023/04/06 00:15:08+0000,-33.11,-46.41,-38.22,-47.84,-50.46,-54.86
2023/04/06 00:16:00+0000,-33.03,-46.69,-38.86,-47.11,-50.63,-54.29
2023/04/06 00:16:52+0000,-32.56,-46.61,-38.74,-47.22,-48.54,-54.09
2023/04/06 00:17:44+0000,-32.98,-45.43,-38.38,-46.84,-48.69,-53.04
2023/04/06 00:18:36+0000,-32.87,-47.61,-38.58,-44.11,-50.12,-53.57
2023/04/06 00:19:28+0000,-33.72,-48.33,-39.07,-44.19,-50.37,-52.74
2023/04/06 00:20:20+0000,-33.15,-48.07,-39.12,-45.69,-49.96,-53.32
2023/04/06 00:21:23+0000,-33.37,-48.21,-38.27,-44.12,-49.74,-53.40
2023/04/06 00:22:15+0000,-33.16,-47.85,-37.94,-44.59,-49.72,-51.87
2023/04/06 00:23:07+0000,-33.25,-48.35,-38.11,-43.61,-50.44,-53.33
2023/04/06 00:23:59+0000,-33.23,-46.96,-38.12,-43.56,-50.14,-53.04
2023/04/06 00:24:51+0000,-33.13,-47.47,-38.50,-43.83,-49.18,-52.63
2023/04/06 00:25:43+0000,-33.41,-47.69,-38.45,-42.44,-49.66,-52.62
2023/04/06 00:26:35+0000,-33.01,-47.06,-38.73,-43.31,-50.33,-49.91
2023/04/06 00:27:27+0000,-33.27,-46.48,-38.88,-42.11,-50.42,-52.18
2023/04/06 00:28:19+0000,-33.01,-46.88,-38.69,-43.41,-48.31,-50.45
2023/04/06 00:29:11+0000,-33.37,-47.68,-38.22,-42.72,-50.77,-51.55
2023/04/06 00:30:03+0000,-32.91,-46.33,-38.75,-43.62,-50.18,-51.97
2023/04/06 00:31:07+0000,-33.80,-47.09,-38.54,-42.78,-49.71,-49.88
2023/04/06 00:31:59+0000,-33.27,-47.10,-38.65,-42.80,-49.52,-51.48
2023/04/06 00:32:51+0000,-33.65,-46.53,-38.30,-43.25,-49.02,-51.92
2023/04/06 00:33:43+0000,-33.02,-46.85,-38.75,-42.54,-50.25,-50.96
2023/04/06 00:34:35+0000,-33.11,-46.17,-38.75,-44.08,-49.04,-50.60
2023/04/06 00:35:27+0000,-33.60,-45.87,-38.66,-44.23,-50.05,-52.89
2023/04/06 00:36:19+0000,-33.84,-46.15,-39.08,-44.07,-49.42,-52.95
2023/04/06 00:37:11+0000,-33.32,-46.27,-39.00,-43.51,-50.02,-50.73
2023/04/06 00:38:03+0000,-33.67,-47.03,-38.76,-44.03,-48.77,-54.41
2023/04/06 00:38:55+0000,-32.90,-45.58,-38.91,-43.72,-50.26,-53.29
2023/04/06 00:39:47+0000,-32.77,-46.22,-38.75,-43.25,-50.03,-53.36
2023/04/06 00:40:39+0000,-33.75,-46.45,-39.00,-43.61,-47.75,-52.42
2023/04/06 00:41:37+0000,-33.40,-46.57,-39.21,-42.75,-47.90,-52.17
2023/04/06 00:42:30+0000,-33.33,-46.35,-39.45,-43.26,-47.41,-49.73
2023/04/06 00:43:22+0000,-33.26,-45.67,-39.84,-42.38,-50.28,-52.58
2023/04/06 00:44:14+0000,-32.72,-45.46,-39.08,-45.26,-49.76,-52.75
2023/04/06 00:45:06+0000,-32.65,-45.92,-38.84,-45.40,-49.42,-52.34
2023/04/06 00:45:58+0000,-34.30,-45.90,-39.20,-43.74,-50.34,-52.51
2023/04/06 00:46:50+0000,-33.61,-46.14,-38.67,-45.29,-48.47,-52.15
2023/04/06 00:47:42+0000,-33.00,-46.21,-38.65,-44.31,-49.79,-52.11
2023/04/06 00:48:34+0000,-32.85,-45.40,-38.58,-44.21,-48.52,-53.79
2023/04/06 00:49:26+0000,-33.75,-46.31,-38.94,-42.36,-50.35,-52.48
2023/04/06 00:50:18+0000,-33.18,-45.59,-37.90,-42.59,-49.40,-53.61
2023/04/06 00:51:17+0000,-32.83,-45.54,-38.32,-42.31,-50.76,-53.30
2023/04/06 00:52:09+0000,-33.38,-45.95,-38.24,-42.27,-49.46,-51.93
2023/04/06 00:53:01+0000,-32.07,-45.37,-38.15,-41.77,-48.54,-51.98
2023/04/06 00:53:53+0000,-32.65,-45.60,-38.48,-42.71,-49.63,-53.39
2023/04/06 00:54:45+0000,-32.76,-44.86,-38.16,-42.63,-50.01,-51.01
2023/04/06 00:55:37+0000,-32.51,-45.16,-38.10,-42.59,-49.01,-52.13
2023/04/06 00:56:29+0000,-33.11,-45.78,-37.51,-43.14,-48.26,-53.22
2023/04/06 00:57:21+0000,-32.91,-45.68,-38.45,-43.58,-49.43,-52.62
2023/04/06 00:58:13+0000,-33.87,-45.99,-38.08,-42.92,-50.19,-52.46
2023/04/06 00:59:06+0000,-32.95,-46.09,-37.88,-42.97,-47.62,-52.12
2023/04/06 00:59:58+0000,-33.23,-47.08,-38.02,-42.49,-50.50,-52.38
2023/04/06 01:00:50+0000,-33.70,-45.73,-37.88,-44.24,-49.95,-51.76
2023/04/06 01:01:49+0000,-33.52,-45.54,-38.01,-42.80,-48.60,-53.58
2023/04/06 01:02:41+0000,-33.56,-46.22,-38.89,-43.18,-50.66,-48.02
2023/04/06 01:03:33+0000,-33.46,-44.87,-37.02,-43.99,-46.28,-53.06
2023/04/06 01:04:25+0000,-32.97,-46.18,-37.94,-41.22,-50.49,-52.37
2023/04/06 01:05:17+0000,-33.67,-45.75,-38.22,-41.99,-49.30,-53.79
2023/04/06 01:06:09+0000,-33.87,-45.51,-37.12,-42.60,-50.21,-49.87
2023/04/06 01:07:01+0000,-33.32,-46.63,-38.26,-40.04,-45.95,-53.38
2023/04/06 01:07:53+0000,-33.28,-46.98,-38.33,-40.20,-49.40,-53.92
2023/04/06 01:08:45+0000,-33.33,-46.07,-38.57,-42.06,-49.59,-53.17
2023/04/06 01:09:37+0000,-34.61,-46.21,-37.21,-41.90,-50.06,-50.94
2023/04/06 01:10:30+0000,-33.83,-47.21,-38.16,-41.09,-49.99,-53.06
2023/04/06 01:11:28+0000,-34.04,-45.25,-38.61,-40.37,-50.22,-52.38
2023/04/06 01:12:20+0000,-33.74,-46.01,-38.68,-42.00,-50.54,-49.90
2023/04/06 01:13:12+0000,-33.29,-45.95,-38.41,-41.86,-50.06,-50.67
2023/04/06 01:14:04+0000,-34.21,-46.78,-38.51,-42.50,-50.07,-52.94
2023/04/06 01:14:56+0000,-34.34,-45.44,-38.54,-41.16,-49.86,-53.57
2023/04/06 01:15:48+0000,-33.22,-45.47,-39.53,-40.79,-49.49,-52.64
2023/04/06 01:16:40+0000,-33.52,-46.51,-38.02,-41.29,-49.72,-53.50
2023/04/06 01:17:32+0000,-33.79,-46.28,-37.71,-42.13,-49.71,-53.41
2023/04/06 01:18:24+0000,-33.82,-45.79,-38.31,-43.17,-50.43,-54.10
2023/04/06 01:19:16+0000,-33.27,-45.98,-38.05,-42.15,-49.04,-54.61
2023/04/06 01:20:09+0000,-33.05,-45.78,-37.86,-42.97,-50.16,-54.06
2023/04/06 01:21:08+0000,-33.50,-46.50,-37.90,-42.98,-50.31,-53.58
2023/04/06 01:22:00+0000,-33.98,-46.19,-38.03,-42.06,-49.69,-55.07
2023/04/06 01:22:52+0000,-33.40,-45.88,-38.04,-42.98,-49.39,-54.30
2023/04/06 01:23:44+0000,-33.97,-45.97,-38.15,-43.14,-47.64,-54.83
2023/04/06 01:24:36+0000,-33.55,-45.13,-37.58,-44.21,-49.62,-54.74
2023/04/06 01:25:28+0000,-33.58,-46.37,-38.37,-43.08,-49.87,-54.81
2023/04/06 01:26:20+0000,-34.04,-46.72,-38.54,-45.17,-48.92,-55.11
2023/04/06 01:27:12+0000,-33.36,-46.46,-38.23,-44.42,-49.32,-55.40
2023/04/06 01:28:04+0000,-34.07,-47.23,-37.66,-43.14,-49.98,-54.06
2023/04/06 01:28:56+0000,-33.85,-46.14,-38.32,-41.53,-50.32,-54.78
2023/04/06 01:29:48+0000,-34.37,-46.51,-38.23,-37.96,-49.52,-54.57
2023/04/06 01:30:40+0000,-33.15,-45.49,-36.61,-41.00,-50.06,-54.76
2023/04/06 01:31:39+0000,-34.19,-46.75,-36.57,-41.34,-49.60,-55.04
2023/04/06 01:32:31+0000,-33.25,-47.07,-36.88,-41.42,-50.00,-54.58
2023/04/06 01:33:23+0000,-34.15,-47.40,-36.73,-41.62,-48.79,-54.14
2023/04/06 01:34:15+0000,-33.34,-46.70,-38.09,-42.08,-48.81,-54.86
2023/04/06 01:35:07+0000,-34.27,-47.38,-37.62,-42.66,-49.96,-55.31
2023/04/06 01:35:59+0000,-33.24,-47.17,-38.90,-43.01,-50.25,-54.74
2023/04/06 01:36:51+0000,-29.80,-45.81,-37.49,-44.42,-49.46,-54.80
2023/04/06 01:37:43+0000,-33.92,-46.23,-38.52,-43.53,-49.96,-54.32
2023/04/06 01:38:35+0000,-33.95,-46.69,-37.53,-44.31,-50.07,-55.18
2023/04/06 01:39:27+0000,-32.70,-46.25,-37.84,-43.18,-50.70,-54.31
2023/04/06 01:40:19+0000,-34.03,-46.24,-37.21,-41.85,-49.98,-54.69
2023/04/06 01:41:19+0000,-33.07,-45.93,-37.41,-44.18,-50.25,-54.90
2023/04/06 01:42:11+0000,-33.21,-47.54,-37.99,-43.48,-50.32,-55.18
2023/04/06 01:43:03+0000,-33.68,-47.40,-36.89,-40.39,-50.29,-55.04
2023/04/06 01:43:55+0000,-33.49,-47.58,-37.34,-41.12,-50.21,-55.43
2023/04/06 01:44:47+0000,-33.89,-45.52,-37.88,-43.83,-49.73,-54.84
2023/04/06 01:45:39+0000,-32.88,-47.22,-37.65,-43.82,-50.25,-54.63
2023/04/06 01:46:31+0000,-34.37,-47.12,-38.09,-40.28,-50.02,-54.90
2023/04/06 01:47:23+0000,-33.06,-48.28,-37.90,-43.03,-50.40,-54.48
2023/04/06 01:48:15+0000,-33.57,-46.41,-38.65,-43.35,-50.10,-53.87
2023/04/06 01:49:07+0000,-32.72,-47.07,-37.27,-43.73,-50.60,-54.63
2023/04/06 01:49:59+0000,-33.63,-46.42,-38.38,-41.22,-49.76,-54.76
2023/04/06 01:50:51+0000,-32.74,-45.72,-38.07,-44.36,-50.12,-54.44
2023/04/06 01:51:50+0000,-33.88,-47.39,-38.42,-44.96,-49.92,-54.94
2023/04/06 01:52:42+0000,-34.13,-45.77,-36.36,-43.06,-50.87,-54.35
2023/04/06 01:53:34+0000,-33.77,-46.61,-36.15,-39.62,-50.26,-55.10
2023/04/06 01:54:26+0000,-33.14,-47.40,-38.08,-41.30,-50.44,-54.59
2023/04/06 01:55:18+0000,-33.04,-47.05,-37.52,-42.75,-50.54,-54.81
2023/04/06 01:56:10+0000,-32.91,-46.65,-33.78,-42.85,-49.86,-54.45
2023/04/06 01:57:02+0000,-33.43,-45.92,-35.55,-41.89,-50.86,-54.54
2023/04/06 01:57:54+0000,-32.33,-47.61,-37.30,-41.10,-49.40,-54.77
2023/04/06 01:58:46+0000,-33.50,-47.30,-37.71,-42.41,-49.72,-54.91
2023/04/06 01:59:38+0000,-33.67,-47.17,-35.51,-42.30,-50.08,-55.05
2023/04/06 02:00:30+0000,-32.64,-46.14,-38.41,-41.97,-50.27,-55.05
2023/04/06 02:01:29+0000,-33.09,-47.20,-34.21,-43.54,-50.68,-54.72
2023/04/06 02:02:21+0000,-33.48,-45.94,-37.56,-41.10,-49.88,-55.34
2023/04/06 02:03:13+0000,-33.63,-47.20,-38.10,-43.55,-50.17,-54.64
2023/04/06 02:04:05+0000,-33.94,-46.87,-38.16,-43.67,-50.01,-55.14
2023/04/06 02:04:57+0000,-34.15,-46.00,-37.86,-41.10,-50.56,-54.81
2023/04/06 02:05:49+0000,-33.76,-44.49,-37.85,-44.00,-50.14,-54.27
2023/04/06 02:06:41+0000,-33.05,-46.16,-38.31,-42.52,-50.58,-54.64
2023/04/06 02:07:33+0000,-33.80,-46.21,-37.57,-43.59,-50.92,-54.72
2023/04/06 02:08:25+0000,-33.20,-47.31,-37.93,-40.33,-50.77,-54.81
2023/04/06 02:09:17+0000,-32.61,-46.29,-37.96,-43.38,-50.83,-54.80
2023/04/06 02:10:09+0000,-33.48,-46.12,-36.87,-43.37,-50.21,-54.61
2023/04/06 02:11:09+0000,-33.71,-45.27,-36.88,-43.13,-50.60,-54.90
2023/04/06 02:12:01+0000,-33.18,-46.46,-37.44,-42.84,-49.81,-54.98
2023/04/06 02:12:53+0000,-34.10,-45.26,-37.97,-42.84,-50.61,-54.89
2023/04/06 02:13:45+0000,-33.17,-46.16,-37.60,-44.37,-51.05,-54.50
2023/04/06 02:14:37+0000,-33.59,-47.41,-36.35,-44.16,-49.96,-54.67
2023/04/06 02:15:29+0000,-33.48,-46.15,-37.31,-41.68,-49.59,-54.07
2023/04/06 02:16:21+0000,-33.29,-47.04,-37.45,-42.74,-50.21,-54.89
2023/04/06 02:17:13+0000,-33.55,-46.90,-38.10,-43.42,-51.05,-54.89
2023/04/06 02:18:05+0000,-33.77,-47.59,-36.00,-44.29,-50.03,-54.68
2023/04/06 02:18:57+0000,-33.71,-46.41,-38.20,-42.67,-50.23,-55.17
2023/04/06 02:19:49+0000,-33.38,-44.98,-38.22,-44.22,-50.97,-55.10
2023/04/06 02:20:41+0000,-33.31,-45.27,-38.59,-43.42,-50.88,-54.97
2023/04/06 02:21:44+0000,-33.23,-46.04,-37.70,-43.56,-50.22,-55.13
2023/04/06 02:22:37+0000,-33.06,-47.65,-36.73,-44.00,-49.98,-54.66
2023/04/06 02:23:29+0000,-31.45,-46.50,-38.39,-42.90,-50.12,-55.22
2023/04/06 02:24:21+0000,-33.25,-47.16,-38.08,-43.44,-49.98,-54.71
2023/04/06 02:25:13+0000,-33.41,-45.27,-38.31,-44.43,-48.84,-54.58
2023/04/06 02:26:05+0000,-33.29,-45.93,-36.39,-44.88,-50.30,-55.44
2023/04/06 02:26:57+0000,-33.47,-46.11,-38.26,-43.33,-50.24,-54.72
2023/04/06 02:27:49+0000,-33.59,-45.87,-38.71,-44.45,-50.05,-54.45
2023/04/06 02:28:41+0000,-32.74,-45.65,-37.34,-42.90,-50.21,-54.88
2023/04/06 02:29:33+0000,-34.12,-46.13,-36.55,-43.61,-50.78,-54.83
2023/04/06 02:30:25+0000,-33.42,-46.84,-38.24,-42.92,-49.92,-54.67
2023/04/06 02:31:23+0000,-32.42,-47.02,-37.23,-43.13,-48.58,-54.84
2023/04/06 02:32:15+0000,-32.73,-47.00,-38.64,-43.37,-49.41,-54.87
2023/04/06 02:33:08+0000,-33.36,-47.28,-35.33,-44.37,-50.40,-54.81
2023/04/06 02:34:00+0000,-33.29,-46.27,-35.94,-39.88,-50.22,-54.96
2023/04/06 02:34:52+0000,-33.36,-46.98,-37.72,-40.93,-49.73,-54.65
2023/04/06 02:35:44+0000,-34.32,-46.55,-38.20,-45.24,-47.31,-55.01
2023/04/06 02:36:36+0000,-33.80,-46.00,-34.34,-43.71,-49.99,-54.69
2023/04/06 02:37:28+0000,-33.84,-45.02,-38.19,-41.01,-50.28,-54.92
2023/04/06 02:38:20+0000,-34.28,-44.89,-37.88,-42.61,-44.58,-54.66
2023/04/06 02:39:12+0000,-33.57,-46.06,-36.02,-42.11,-49.86,-54.59
2023/04/06 02:40:04+0000,-33.47,-44.28,-34.29,-42.08,-50.48,-55.01
2023/04/06 02:41:04+0000,-33.09,-45.51,-35.29,-41.44,-50.57,-55.02
2023/04/06 02:41:56+0000,-33.82,-47.18,-37.86,-38.42,-50.19,-54.90
2023/04/06 02:42:48+0000,-33.31,-46.36,-37.45,-41.38,-49.97,-54.93
2023/04/06 02:43:40+0000,-32.97,-45.57,-36.26,-40.28,-50.21,-55.07
2023/04/06 02:44:32+0000,-33.13,-46.57,-35.10,-41.04,-50.24,-54.63
2023/04/06 02:45:24+0000,-33.23,-46.87,-37.79,-41.02,-49.35,-54.49
2023/04/06 02:46:16+0000,-33.49,-46.93,-37.26,-41.09,-49.05,-54.52
2023/04/06 02:47:08+0000,-32.85,-45.96,-36.28,-38.48,-49.70,-55.07
2023/04/06 02:48:00+0000,-33.87,-46.22,-36.24,-41.53,-50.58,-54.38
2023/04/06 02:48:52+0000,-33.32,-46.66,-38.04,-41.74,-49.14,-53.71
2023/04/06 02:49:44+0000,-33.23,-44.60,-38.23,-39.84,-49.20,-53.67
2023/04/06 02:50:36+0000,-33.73,-46.33,-37.73,-39.85,-49.74,-53.84
2023/04/06 02:51:35+0000,-33.71,-45.06,-37.75,-42.89,-49.68,-54.33
2023/04/06 02:52:27+0000,-33.73,-45.66,-38.08,-43.77,-50.41,-54.68
2023/04/06 02:53:19+0000,-32.92,-45.08,-37.74,-44.03,-49.28,-54.17
2023/04/06 02:54:11+0000,-32.82,-45.68,-37.57,-43.71,-50.22,-54.42
2023/04/06 02:55:03+0000,-33.67,-46.08,-37.21,-42.87,-49.36,-54.09
2023/04/06 02:55:55+0000,-32.67,-45.54,-37.91,-42.35,-50.15,-53.98
2023/04/06 02:56:47+0000,-33.56,-44.77,-37.98,-43.21,-49.31,-54.19
2023/04/06 02:57:39+0000,-32.77,-46.18,-35.09,-43.39,-49.48,-54.59
2023/04/06 02:58:31+0000,-33.46,-44.00,-36.26,-43.42,-50.53,-54.42
2023/04/06 02:59:23+0000,-33.56,-46.18,-37.89,-42.60,-49.89,-54.24
2023/04/06 03:00:15+0000,-33.19,-45.50,-38.33,-43.59,-49.74,-54.20
2023/04/06 03:01:14+0000,-32.93,-45.56,-36.32,-43.55,-49.16,-54.07
2023/04/06 03:02:06+0000,-33.04,-46.49,-36.03,-42.95,-50.40,-54.34
2023/04/06 03:02:59+0000,-32.98,-45.41,-38.16,-43.01,-50.03,-54.38
2023/04/06 03:03:51+0000,-32.84,-46.30,-37.39,-43.22,-50.75,-54.53
2023/04/06 03:04:43+0000,-33.18,-44.75,-37.62,-43.95,-50.95,-54.46
2023/04/06 03:05:35+0000,-32.93,-46.24,-37.18,-42.46,-50.41,-54.64
2023/04/06 03:06:27+0000,-31.96,-44.77,-37.86,-41.05,-50.66,-54.56
2023/04/06 03:07:19+0000,-32.37,-44.71,-37.30,-43.00,-50.19,-54.36
2023/04/06 03:08:11+0000,-32.79,-45.55,-37.52,-42.25,-51.03,-53.76
2023/04/06 03:09:03+0000,-32.99,-45.38,-37.29,-43.10,-50.53,-54.30
2023/04/06 03:09:55+0000,-32.12,-44.70,-37.38,-41.62,-50.77,-54.46
2023/04/06 03:10:47+0000,-31.88,-45.26,-37.28,-43.37,-50.62,-54.27
2023/04/06 03:11:45+0000,-33.28,-44.00,-37.83,-42.71,-50.79,-54.29
2023/04/06 03:12:37+0000,-32.63,-45.41,-36.16,-43.48,-50.03,-54.22
2023/04/06 03:13:29+0000,-32.70,-45.13,-37.51,-41.56,-50.67,-54.62
2023/04/06 03:14:21+0000,-32.38,-46.38,-35.38,-43.01,-50.58,-54.26
2023/04/06 03:15:13+0000,-32.85,-44.93,-37.94,-41.32,-50.73,-54.77
2023/04/06 03:16:05+0000,-33.15,-45.91,-37.38,-44.49,-49.98,-54.31
2023/04/06 03:16:57+0000,-31.29,-45.49,-39.20,-42.62,-50.02,-53.73
2023/04/06 03:17:50+0000,-31.10,-45.55,-36.80,-44.01,-50.77,-53.83
2023/04/06 03:18:42+0000,-33.04,-43.93,-38.23,-43.45,-50.79,-54.12
2023/04/06 03:19:34+0000,-33.32,-44.02,-37.85,-43.78,-50.38,-54.40
2023/04/06 03:20:26+0000,-31.43,-44.94,-35.95,-42.12,-50.49,-53.71
2023/04/06 03:21:24+0000,-30.28,-43.96,-36.30,-42.21,-49.85,-53.95
2023/04/06 03:22:16+0000,-32.35,-44.60,-35.84,-43.37,-50.47,-54.11
2023/04/06 03:23:08+0000,-33.02,-45.10,-37.48,-43.23,-50.48,-54.07
2023/04/06 03:24:00+0000,-33.32,-44.50,-37.65,-41.89,-50.55,-53.79
2023/04/06 03:24:52+0000,-32.47,-45.00,-36.87,-41.12,-50.54,-53.83
2023/04/06 03:25:44+0000,-32.77,-43.44,-36.82,-43.21,-50.36,-54.29
2023/04/06 03:26:36+0000,-32.51,-45.04,-37.63,-43.25,-50.71,-54.01
2023/04/06 03:27:28+0000,-32.62,-44.20,-37.79,-42.00,-50.57,-53.89
2023/04/06 03:28:20+0000,-34.11,-43.76,-37.68,-43.59,-51.18,-54.65
2023/04/06 03:29:12+0000,-32.66,-44.19,-37.99,-39.50,-51.13,-53.59
2023/04/06 03:30:05+0000,-32.80,-45.22,-37.52,-44.32,-50.43,-54.13
2023/04/06 03:31:03+0000,-33.03,-44.78,-37.23,-43.04,-50.60,-53.56
2023/04/06 03:31:55+0000,-33.68,-45.29,-38.15,-43.48,-50.95,-53.59
2023/04/06 03:32:47+0000,-33.12,-43.68,-37.96,-40.33,-50.04,-53.95
2023/04/06 03:33:39+0000,-32.99,-43.43,-37.08,-41.19,-50.78,-54.29
2023/04/06 03:34:31+0000,-33.41,-44.55,-37.81,-44.04,-50.13,-54.04
2023/04/06 03:35:23+0000,-32.83,-44.62,-37.62,-43.46,-50.59,-53.94
2023/04/06 03:36:15+0000,-33.24,-45.03,-38.37,-38.87,-50.36,-53.77
2023/04/06 03:37:07+0000,-33.71,-45.32,-37.41,-41.37,-50.38,-54.11
2023/04/06 03:37:59+0000,-33.34,-43.43,-38.16,-43.32,-50.65,-54.34
2023/04/06 03:38:51+0000,-30.04,-44.39,-37.91,-43.38,-50.45,-53.68
2023/04/06 03:39:44+0000,-32.59,-43.69,-38.96,-43.59,-50.52,-53.93
2023/04/06 03:40:36+0000,-32.50,-44.64,-37.77,-43.99,-50.24,-53.73
2023/04/06 03:41:35+0000,-32.81,-44.47,-38.20,-44.47,-50.68,-54.16
2023/04/06 03:42:27+0000,-33.38,-44.44,-37.76,-42.56,-50.74,-53.87
2023/04/06 03:43:19+0000,-32.62,-43.75,-38.38,-44.41,-50.27,-53.75
2023/04/06 03:44:11+0000,-32.94,-44.15,-38.04,-44.16,-50.52,-53.97
2023/04/06 03:45:03+0000,-32.50,-43.84,-37.69,-42.72,-50.84,-53.61
2023/04/06 03:45:55+0000,-32.05,-43.18,-37.74,-43.40,-50.72,-54.15
2023/04/06 03:46:47+0000,-33.39,-44.35,-37.83,-43.62,-51.34,-54.10
2023/04/06 03:47:39+0000,-32.69,-44.26,-38.27,-43.72,-50.72,-53.90
2023/04/06 03:48:31+0000,-33.17,-44.06,-38.16,-42.78,-50.69,-53.94
2023/04/06 03:49:23+0000,-32.76,-45.85,-38.59,-42.69,-51.15,-54.09
2023/04/06 03:50:16+0000,-33.62,-40.75,-38.63,-43.36,-50.70,-54.56
2023/04/06 03:51:16+0000,-32.49,-42.33,-37.77,-43.60,-50.68,-54.16
2023/04/06 03:52:08+0000,-33.30,-46.34,-37.36,-42.64,-51.03,-53.97
2023/04/06 03:53:00+0000,-32.51,-43.69,-38.62,-43.50,-50.09,-53.80
2023/04/06 03:53:52+0000,-33.16,-45.72,-38.20,-43.41,-50.35,-53.51
2023/04/06 03:54:44+0000,-31.80,-43.68,-38.70,-41.57,-50.51,-53.54
2023/04/06 03:55:36+0000,-32.97,-43.80,-38.02,-44.94,-50.09,-53.75
2023/04/06 03:56:28+0000,-32.05,-44.04,-38.42,-44.00,-50.17,-54.32
2023/04/06 03:57:20+0000,-31.33,-42.92,-37.72,-45.03,-50.25,-53.96
2023/04/06 03:58:12+0000,-32.84,-43.61,-37.42,-43.41,-50.58,-53.62
2023/04/06 03:59:04+0000,-32.67,-44.32,-37.95,-44.95,-50.07,-53.99
2023/04/06 03:59:56+0000,-32.93,-43.43,-38.31,-43.37,-51.00,-53.65
2023/04/06 04:00:48+0000,-32.53,-42.93,-37.93,-43.07,-50.78,-53.61
2023/04/06 04:01:49+0000,-33.54,-44.69,-37.59,-43.33,-50.79,-54.20
2023/04/06 04:02:41+0000,-32.99,-42.87,-37.82,-42.96,-51.13,-54.22
2023/04/06 04:03:33+0000,-32.59,-44.88,-37.77,-42.99,-51.31,-53.69
2023/04/06 04:04:25+0000,-31.90,-45.29,-37.44,-43.25,-50.42,-53.68
2023/04/06 04:05:17+0000,-31.89,-43.82,-37.75,-42.96,-51.25,-53.53
2023/04/06 04:06:09+0000,-32.96,-42.51,-37.62,-43.00,-50.52,-54.08
2023/04/06 04:07:01+0000,-33.16,-44.96,-37.56,-42.57,-50.38,-53.43
2023/04/06 04:07:53+0000,-31.91,-45.01,-37.57,-42.61,-50.84,-53.91
2023/04/06 04:08:45+0000,-33.01,-43.23,-37.57,-43.83,-49.98,-53.86
2023/04/06 04:09:37+0000,-32.48,-44.33,-37.71,-43.05,-49.84,-54.21
2023/04/06 04:10:29+0000,-33.29,-45.34,-37.57,-43.35,-49.36,-53.35
2023/04/06 04:11:28+0000,-32.26,-44.75,-37.52,-44.06,-49.57,-53.52
2023/04/06 04:12:20+0000,-32.54,-46.01,-37.96,-44.03,-49.96,-52.67
2023/04/06 04:13:13+0000,-33.01,-44.00,-37.83,-41.66,-50.05,-52.76
2023/04/06 04:14:05+0000,-32.65,-45.24,-38.09,-43.69,-49.53,-53.12
2023/04/06 04:14:57+0000,-32.66,-44.94,-38.42,-42.14,-50.05,-52.23
2023/04/06 04:15:49+0000,-32.30,-44.84,-38.05,-43.13,-50.06,-51.89
2023/04/06 04:16:41+0000,-32.33,-44.54,-37.53,-41.97,-49.99,-52.26
2023/04/06 04:17:33+0000,-32.06,-44.59,-37.29,-42.41,-49.33,-52.48
2023/04/06 04:18:25+0000,-32.60,-43.74,-38.24,-43.27,-49.74,-52.30
2023/04/06 04:19:17+0000,-31.87,-43.93,-38.23,-42.96,-50.03,-52.32
2023/04/06 04:20:09+0000,-32.60,-44.57,-37.22,-42.35,-48.78,-52.06
2023/04/06 04:21:18+0000,-31.32,-44.81,-38.35,-43.71,-49.80,-51.72
2023/04/06 04:22:10+0000,-32.94,-44.48,-37.55,-42.50,-49.44,-51.78
2023/04/06 04:23:02+0000,-32.50,-42.89,-37.62,-42.24,-49.43,-51.74
2023/04/06 04:23:54+0000,-32.69,-44.81,-37.43,-41.25,-49.74,-52.27
2023/04/06 04:24:46+0000,-32.43,-43.31,-37.87,-42.54,-50.34,-52.56
2023/04/06 04:25:38+0000,-32.98,-45.55,-38.12,-42.60,-50.12,-52.09
2023/04/06 04:26:30+0000,-32.99,-44.35,-38.24,-41.15,-49.80,-52.60
2023/04/06 04:27:22+0000,-31.85,-45.93,-37.96,-42.87,-48.47,-51.82
2023/04/06 04:28:14+0000,-32.07,-43.58,-37.98,-43.30,-48.04,-51.93
2023/04/06 04:29:06+0000,-31.53,-45.65,-38.13,-42.97,-48.30,-52.25
2023/04/06 04:29:58+0000,-31.80,-44.70,-38.23,-41.96,-48.44,-51.85
2023/04/06 04:30:50+0000,-32.24,-42.09,-38.37,-42.06,-47.65,-52.10
2023/04/06 04:31:51+0000,-32.36,-44.96,-38.43,-42.51,-48.66,-52.28
2023/04/06 04:32:43+0000,-32.21,-42.93,-38.35,-42.60,-48.22,-52.21
2023/04/06 04:33:35+0000,-31.80,-44.26,-37.92,-42.97,-48.02,-51.79
2023/04/06 04:34:27+0000,-31.43,-43.07,-38.58,-42.43,-47.77,-51.62
2023/04/06 04:35:19+0000,-31.40,-43.96,-38.16,-43.46,-48.26,-51.09
2023/04/06 04:36:11+0000,-31.92,-44.14,-36.52,-42.51,-48.48,-51.62
2023/04/06 04:37:03+0000,-30.88,-44.42,-35.97,-42.63,-47.99,-51.62
2023/04/06 04:37:55+0000,-32.23,-44.50,-37.58,-41.79,-48.27,-51.51
2023/04/06 04:38:47+0000,-31.12,-43.70,-38.01,-42.54,-47.87,-51.60
2023/04/06 04:39:39+0000,-32.21,-43.55,-38.14,-42.75,-48.15,-52.17
2023/04/06 04:40:31+0000,-33.05,-43.47,-36.74,-42.52,-48.71,-51.83
2023/04/06 04:41:30+0000,-33.13,-44.39,-37.03,-41.76,-48.25,-51.90
2023/04/06 04:42:22+0000,-32.00,-45.02,-38.28,-41.52,-47.90,-52.13
2023/04/06 04:43:14+0000,-32.28,-42.22,-37.90,-44.40,-48.40,-51.46
2023/04/06 04:44:06+0000,-31.46,-45.59,-37.90,-43.28,-46.92,-51.19
2023/04/06 04:44:58+0000,-31.63,-44.05,-38.24,-41.08,-47.05,-51.75
2023/04/06 04:45:50+0000,-32.38,-42.88,-38.07,-42.82,-46.11,-51.66
2023/04/06 04:46:42+0000,-32.05,-41.93,-38.56,-42.07,-47.42,-51.23
2023/04/06 04:47:34+0000,-31.80,-44.71,-37.93,-43.44,-47.49,-52.10
2023/04/06 04:48:26+0000,-32.08,-38.00,-38.18,-42.35,-47.70,-51.37
2023/04/06 04:49:19+0000,-32.10,-42.70,-37.42,-42.64,-47.92,-51.07
2023/04/06 04:50:11+0000,-33.37,-43.61,-37.25,-43.02,-48.30,-51.34
2023/04/06 04:51:10+0000,-31.97,-40.88,-37.80,-43.03,-48.98,-52.01
2023/04/06 04:52:02+0000,-33.55,-44.35,-38.08,-42.43,-48.91,-51.93
2023/04/06 04:52:54+0000,-32.69,-45.24,-37.99,-43.26,-48.65,-51.78
2023/04/06 04:53:46+0000,-32.60,-37.56,-37.97,-42.96,-49.10,-51.89
2023/04/06 04:54:38+0000,-32.08,-45.47,-36.32,-43.24,-49.23,-52.13
2023/04/06 04:55:30+0000,-32.55,-44.53,-37.09,-42.90,-49.41,-52.10
2023/04/06 04:56:22+0000,-32.10,-45.53,-37.74,-42.35,-49.01,-52.07